Change the Weather History Date:

Tuesday, October 2, 2012

  Actual Average Record
Temperature  
Mean Temperature 60 °F -  
Max Temperature 77 °F 61 °F 92 °F (1992)
Min Temperature 42 °F 36 °F 16 °F (1993)
Degree Days  
Heating Degree Days 6    
Growing Degree Days 10 (Base 50)    
Moisture  
Dew Point 29 °F    
Average Humidity 35    
Maximum Humidity 54    
Minimum Humidity 18    
Precipitation  
Precipitation 0.00 in - - ()
Sea Level Pressure  
Sea Level Pressure 29.71 in    
Wind  
Wind Speed 15 mph (SSW)    
Max Wind Speed 39 mph    
Max Gust Speed 48 mph    
Visibility 10 miles    
Events      
Averages and records for this station are not official NWS values.
T = Trace of Precipitation, MM = Missing Value Source: NWS Daily Summary

Daily Weather History Graph

Daily Weather History Graph

Search for Another Location

Airport or City:

Trip Planner

Search our weather history database for the weather conditions in past years. The results will help you decide how hot, cold, wet, or windy it might be!

Date:

Astronomy

Oct. 02, 2012 Rise Set
Actual Time 7:29 AM CDT 7:03 PM CDT
Civil Twilight 6:58 AM CDT 7:34 PM CDT
Nautical Twilight 6:21 AM CDT 8:11 PM CDT
Astronomical Twilight 5:44 AM CDT 8:48 PM CDT
Moon 7:59 PM CDT 10:14 AM CDT
Length of Visible Light 12h 36m
Length of Day
11h 33m
Waning Gibbous, 94% of the Moon is Illuminated
Oct 2
Waning Gibbous
Oct 8
Last Quarter
Oct 15
New
Oct 21
First Quarter
Oct 29
Full

Hourly Weather History & Observations

Time (CDT) Temp. Windchill Dew Point Humidity Pressure Visibility Wind Dir Wind Speed Gust Speed Precip Events Conditions
12:14 AM 46.4 °F 41.9 °F 19.4 °F 34% 29.89 in 10.0 mi SSE 9.2 mph - N/A   Clear
12:34 AM 44.6 °F 40.2 °F 19.4 °F 37% 29.89 in 10.0 mi SSE 8.1 mph - N/A   Clear
12:55 AM 44.6 °F 39.7 °F 19.4 °F 37% 29.89 in 10.0 mi SSE 9.2 mph - N/A   Clear
1:14 AM 44.6 °F 39.7 °F 19.4 °F 37% 29.88 in 10.0 mi SSE 9.2 mph - N/A   Clear
1:34 AM 44.6 °F 39.7 °F 19.4 °F 37% 29.87 in 10.0 mi SSE 9.2 mph - N/A   Clear
1:54 AM 44.6 °F 40.2 °F 21.2 °F 39% 29.87 in 10.0 mi SSE 8.1 mph - N/A   Clear
2:14 AM 44.6 °F 39.7 °F 21.2 °F 39% 29.86 in 10.0 mi SSE 9.2 mph - N/A   Clear
2:35 AM 44.6 °F 39.7 °F 21.2 °F 39% 29.85 in 10.0 mi SSE 9.2 mph - N/A   Clear
2:54 AM 42.8 °F 37.5 °F 21.2 °F 42% 29.85 in 10.0 mi SSE 9.2 mph - N/A   Clear
3:14 AM 42.8 °F 37.0 °F 23.0 °F 46% 29.84 in 10.0 mi SSE 10.4 mph - N/A   Clear
3:34 AM 44.6 °F 39.2 °F 24.8 °F 46% 29.83 in 10.0 mi SSE 10.4 mph - N/A   Clear
3:55 AM 44.6 °F 39.2 °F 24.8 °F 46% 29.83 in 10.0 mi SSE 10.4 mph - N/A   Clear
4:14 AM 44.6 °F 38.8 °F 24.8 °F 46% 29.83 in 10.0 mi SSE 11.5 mph - N/A   Clear
4:21 AM 44.6 °F 39.2 °F 24.8 °F 46% 29.82 in 10.0 mi SSE 10.4 mph - N/A   Clear
4:49 AM 44.6 °F 38.8 °F 24.8 °F 46% 29.81 in 10.0 mi SSE 11.5 mph - N/A   Clear
5:34 AM 44.6 °F 38.4 °F 26.6 °F 49% 29.80 in 10.0 mi SSE 12.7 mph - N/A   Clear
5:54 AM 44.6 °F 38.1 °F 26.6 °F 49% 29.79 in 10.0 mi SSE 13.8 mph - N/A   Clear
6:15 AM 44.6 °F 38.1 °F 26.6 °F 49% 29.78 in 10.0 mi SSE 13.8 mph - N/A   Clear
6:34 AM 44.6 °F 37.8 °F 26.6 °F 49% 29.77 in 10.0 mi SSE 15.0 mph - N/A   Clear
6:54 AM 46.4 °F 39.2 °F 26.6 °F 46% 29.77 in 10.0 mi South 18.4 mph 24.2 mph N/A   Clear
7:15 AM 48.2 °F - 26.6 °F 43% 29.76 in 10.0 mi South 18.4 mph - N/A   Clear
7:34 AM 48.2 °F - 26.6 °F 43% 29.76 in 10.0 mi South 17.3 mph - N/A   Clear
7:54 AM 48.2 °F - 26.6 °F 43% 29.75 in 10.0 mi South 18.4 mph 24.2 mph N/A   Clear
8:15 AM 48.2 °F - 26.6 °F 43% 29.74 in 10.0 mi South 19.6 mph - N/A   Clear
8:34 AM 51.8 °F - 26.6 °F 38% 29.72 in 10.0 mi South 25.3 mph 29.9 mph N/A   Clear
8:54 AM 53.6 °F - 26.6 °F 35% 29.71 in 10.0 mi South 26.5 mph 29.9 mph N/A   Clear
9:14 AM 53.6 °F - 26.6 °F 35% 29.70 in 10.0 mi South 26.5 mph 36.8 mph N/A   Clear
9:34 AM 55.4 °F - 26.6 °F 33% 29.68 in 10.0 mi South 26.5 mph 35.7 mph N/A   Clear
9:55 AM 57.2 °F - 26.6 °F 31% 29.67 in 10.0 mi South 32.2 mph 39.1 mph N/A   Clear
10:14 AM 57.2 °F - 26.6 °F 31% 29.67 in 10.0 mi South 29.9 mph 36.8 mph N/A   Clear
10:34 AM 60.8 °F - 28.4 °F 29% 29.65 in 10.0 mi South 29.9 mph 40.3 mph N/A   Clear
10:54 AM 62.6 °F - 28.4 °F 27% 29.64 in 10.0 mi South 33.4 mph 44.9 mph N/A   Clear
11:14 AM 64.4 °F - 28.4 °F 26% 29.63 in 10.0 mi South 35.7 mph 43.7 mph N/A   Clear
11:34 AM 64.4 °F - 28.4 °F 26% 29.61 in 10.0 mi South 33.4 mph 43.7 mph N/A   Clear
11:54 AM 66.2 °F - 28.4 °F 24% 29.61 in 10.0 mi South 35.7 mph 46.0 mph N/A   Clear
12:14 PM 68.0 °F - 28.4 °F 23% 29.60 in 10.0 mi South 34.5 mph 46.0 mph N/A   Clear
12:34 PM 69.8 °F - 26.6 °F 20% 29.60 in 10.0 mi SSW 36.8 mph 43.7 mph N/A   Clear
12:54 PM 71.6 °F - 28.4 °F 20% 29.60 in 10.0 mi SSW 39.1 mph 48.3 mph N/A   Clear
1:14 PM 71.6 °F - 26.6 °F 19% 29.59 in 7.0 mi SSW 33.4 mph 46.0 mph N/A   Clear
1:34 PM 73.4 °F - 26.6 °F 18% 29.58 in 10.0 mi SSW 31.1 mph 41.4 mph N/A   Clear
1:54 PM 73.4 °F - 28.4 °F 19% 29.58 in 7.0 mi SSW 34.5 mph 42.6 mph N/A   Clear
2:14 PM 75.2 °F - 28.4 °F 18% 29.58 in 7.0 mi SSW 32.2 mph 39.1 mph N/A   Clear
2:34 PM 75.2 °F - 30.2 °F 19% 29.58 in 10.0 mi SSW 25.3 mph 33.4 mph N/A   Clear
2:54 PM 77.0 °F - 33.8 °F 21% 29.58 in 10.0 mi WSW 24.2 mph 31.1 mph N/A   Clear
3:14 PM 77.0 °F - 35.6 °F 22% 29.58 in 10.0 mi WSW 21.9 mph 27.6 mph N/A   Clear
3:34 PM 77.0 °F - 35.6 °F 22% 29.58 in 10.0 mi West 18.4 mph 29.9 mph N/A   Clear
3:54 PM 75.2 °F - 35.6 °F 24% 29.58 in 10.0 mi West 18.4 mph 23.0 mph N/A   Clear
4:14 PM 75.2 °F - 37.4 °F 25% 29.59 in 10.0 mi West 15.0 mph - N/A   Clear
4:34 PM 75.2 °F - 37.4 °F 25% 29.59 in 10.0 mi West 20.7 mph 25.3 mph N/A   Clear
4:55 PM 75.2 °F - 37.4 °F 25% 29.60 in 10.0 mi WSW 13.8 mph - N/A   Clear
5:14 PM 75.2 °F - 37.4 °F 25% 29.60 in 10.0 mi West 18.4 mph - N/A   Clear
5:34 PM 75.2 °F - 35.6 °F 24% 29.62 in 10.0 mi West 16.1 mph - N/A   Clear
5:55 PM 75.2 °F - 35.6 °F 24% 29.62 in 10.0 mi West 13.8 mph - N/A   Scattered Clouds
6:14 PM 73.4 °F - 35.6 °F 25% 29.63 in 10.0 mi WNW 11.5 mph - N/A   Scattered Clouds
6:34 PM 73.4 °F - 37.4 °F 27% 29.63 in 10.0 mi West 13.8 mph - N/A   Mostly Cloudy
7:14 PM 71.6 °F - 37.4 °F 29% 29.66 in 10.0 mi West 9.2 mph - N/A   Overcast
7:34 PM 71.6 °F - 37.4 °F 29% 29.66 in 10.0 mi West 12.7 mph - N/A   Mostly Cloudy
8:14 PM 64.4 °F - 35.6 °F 34% 29.68 in 10.0 mi WNW 6.9 mph - N/A   Clear
8:34 PM 64.4 °F - 35.6 °F 34% 29.69 in 10.0 mi West 5.8 mph - N/A   Clear
9:14 PM 55.4 °F - 33.8 °F 44% 29.70 in 10.0 mi West 8.1 mph - N/A   Clear
9:34 PM 53.6 °F - 35.6 °F 51% 29.71 in 10.0 mi West 8.1 mph - N/A   Clear
9:55 PM 55.4 °F - 32.0 °F 41% 29.72 in 10.0 mi SW 4.6 mph - N/A   Clear
10:14 PM 53.6 °F - 33.8 °F 47% 29.72 in 10.0 mi WSW 8.1 mph - N/A   Clear
10:34 PM 51.8 °F - 32.0 °F 47% 29.73 in 10.0 mi West 9.2 mph - N/A   Clear
10:55 PM 51.8 °F - 33.8 °F 50% 29.74 in 10.0 mi West 9.2 mph - N/A   Clear
11:14 PM 51.8 °F - 33.8 °F 50% 29.74 in 10.0 mi West 9.2 mph - N/A   Clear
11:34 PM 51.8 °F - 33.8 °F 50% 29.74 in 10.0 mi West 8.1 mph - N/A   Clear
11:54 PM 50.0 °F - 33.8 °F 54% 29.74 in 10.0 mi West 8.1 mph - N/A   Clear